CZ-2C DEB

基本信息
目录编号:
55848
目录名称:
CZ-2C DEB
国际标识:
2023-032E
轨道中心:
EARTH
物体状态:
已陨落(2024-06-19)
发射日期:
2023-03-13 UTC
轨道信息
数据来源: 国际轨道数据
星历时间: 2024-06-20T08:20:33+0800
半长轴: 6552.707km
偏心率: 0.001522
轨道倾角: 97.180°
近地点辐角: 274.810°
升交点赤经: 224.616°
平近点角: 85.147°
近地点: 164.598km
远地点: 184.546km
周期: 87.981分钟
每日圈数: 16.3671
详细信息
发射场:
JSC
轨道高度:
LEO
数据来源:
AOE Integration Group
参考系:
TEME
时间系统:
UTC
历元类型:
SGP4
2D轨道图
3D轨道图
轨道高度分析图
轨道倾角分析图
轨道综合分析图
查看轨道综合分析图